Vorticity
7 8 9 9 6 11 5 4 0 24 17 8 16 3 4 26 10 7 25 26 12 11 6 5 2 1 5 9 9 4 7 12 12 12 12 11 5 3 4 1 3 3 5 4 5 5 3
7 6 9 8 18 18 -3 -1 27 5 18 13 7 6 9 12 18 27 23 11 7 4 2 3 2 2 2 4 9 7 7 6 7 6 5 4 1 0 4 7 8 7 4 3 4 4 7
15 5 12 6 -1 -3 -2 12 14 20 7 4 2 9 12 35 26 18 6 4 1 2 2 2 3 7 3 -1 3 3 5 5 6 6 8 8 9 7 6 7 5 5 3 5 10 5 2
11 17 5 8 14 4 0 14 15 -1 2 8 12 21 34 18 7 4 2 1 1 2 5 6 5 6 7 7 6 7 6 5 5 6 6 4 6 7 4 4 6 6 5 1 2 1 4
11 10 11 16 6 -4 13 13 8 11 22 23 20 24 15 -0 1 2 2 2 3 4 4 5 6 3 3 5 6 5 6 6 7 7 7 8 8 4 7 7 10 6 4 8 5 3 8
3 4 17 13 -4 10 13 14 19 20 18 16 16 14 5 3 2 3 3 3 3 5 6 4 5 8 6 4 5 5 6 5 3 5 6 9 8 7 5 6 6 7 10 9 8 9 7
3 18 4 0 8 15 13 20 15 13 13 11 12 5 2 1 2 4 5 4 4 4 6 5 8 5 3 3 4 4 5 6 4 3 6 3 7 4 4 5 6 6 6 10 11 10 9
10 15 -2 5 14 11 17 14 11 11 11 10 3 -0 3 7 6 5 4 4 4 3 3 2 1 -1 1 2 5 8 5 5 5 5 6 7 4 4 3 3 3 5 8 6 4 6 7
10 5 3 12 15 14 16 11 8 11 9 4 6 6 6 7 5 4 4 3 1 1 1 1 2 1 1 3 -0 9 12 8 4 5 5 5 5 6 5 4 4 4 7 7 7 6 5
9 11 5 11 14 18 10 8 6 8 6 6 6 6 4 3 3 2 2 1 -0 0 -0 1 1 2 2 4 2 3 6 8 8 5 4 3 3 3 5 5 4 5 4 7 9 5 10
11 13 8 13 12 22 9 5 4 4 4 4 3 3 3 1 -0 -5 -1 2 0 -1 4 -2 -1 1 0 3 2 2 8 9 5 4 7 6 7 7 7 6 4 3 5 6 9 10 10
9 11 10 11 15 16 8 2 2 3 3 2 3 2 -0 -1 -1 2 1 0 1 2 -1 2 5 6 6 9 9 6 9 9 9 5 3 2 3 5 5 7 9 12 3 3 7 10 10
6 11 9 10 17 12 7 4 3 3 3 2 2 1 0 -2 -1 0 1 0 -1 2 -1 1 2 5 6 9 10 9 9 12 6 2 2 6 13 14 10 7 8 11 13 9 7 10 9
3 10 9 11 19 9 7 1 3 3 4 3 3 2 0 -1 -2 0 2 1 4 3 5 6 7 8 7 12 14 13 10 6 5 5 16 12 14 14 13 12 10 12 13 11 9 7 5
3 10 7 14 16 11 8 2 2 3 1 -0 -2 -1 -0 0 2 3 4 2 6 11 13 12 11 11 13 11 9 7 8 14 24 14 10 13 12 11 13 13 11 9 8 7 6 5 6
6 9 8 13 14 12 7 5 2 1 0 0 -1 3 2 3 3 4 2 10 17 18 16 16 14 10 9 12 15 16 7 6 7 8 6 6 6 7 8 7 7 6 7 9 8 9 7
6 8 9 12 15 11 10 6 4 3 4 3 3 3 2 1 4 9 14 15 12 10 10 14 13 12 12 12 11 10 8 7 5 5 6 3 6 5 4 5 6 7 7 6 5 5 6
8 6 10 11 15 12 10 9 6 4 4 4 2 2 3 6 16 18 8 11 9 9 6 8 11 8 7 8 8 8 8 9 10 8 9 11 11 11 10 9 8 8 7 6 8 7 5
7 7 9 11 12 13 9 7 10 7 6 5 4 6 11 14 9 6 10 14 7 6 5 5 5 6 6 8 8 9 11 9 8 7 6 7 8 7 8 7 7 7 9 8 6 5 3
8 8 8 10 11 11 13 11 9 8 7 8 12 12 11 13 11 9 9 10 5 6 6 6 8 8 11 11 8 4 5 7 11 12 8 5 6 7 9 11 11 8 7 6 4 4 7
8 7 8 9 11 11 10 11 11 11 11 11 10 8 10 11 12 11 9 10 10 9 9 7 8 11 8 6 -1 0 1 2 4 -0 5 1 9 14 6 14 10 16 10 2 10 9 10
9 9 6 8 11 12 11 12 13 12 11 9 8 6 5 6 9 10 9 8 7 7 7 9 10 7 4 2 -1 -1 2 1 1 -2 -1 3 1 5 14 7 20 13 17 13 10 11 10
6 10 7 8 9 10 8 9 10 6 5 6 7 6 6 7 8 9 7 7 7 8 9 6 4 4 3 2 4 0 1 4 4 -3 -0 7 3 9 15 13 13 18 13 9 6 9 6
7 6 9 8 9 9 6 6 5 5 3 3 3 4 4 6 7 7 9 9 9 8 5 4 3 3 2 2 3 3 2 3 3 1 -1 1 6 10 11 14 16 26 11 12 11 8 9
8 5 7 8 9 9 6 7 5 4 4 3 4 4 3 3 5 6 6 6 6 4 5 4 3 2 2 3 3 3 2 3 3 5 -1 3 3 9 11 13 16 28 13 14 11 7 7
7 8 5 7 8 9 8 7 7 5 5 4 4 4 4 4 4 5 5 4 4 5 4 3 3 2 3 3 5 5 4 3 -1 6 2 7 13 15 12 12 15 10 5 9 11 8 4
7 8 8 5 5 6 9 9 8 6 6 5 5 3 4 5 5 5 5 5 4 2 2 3 2 4 3 3 6 1 -1 -0 4 8 13 18 16 13 9 11 14 0 4 2 0 2 3
9 8 10 7 5 4 5 8 10 10 8 6 8 6 3 5 5 6 5 5 4 5 4 4 6 6 4 5 3 -1 2 -4 10 14 18 16 14 9 10 6 4 4 4 1 5 4 4
13 4 11 10 8 4 4 4 5 8 10 9 8 7 6 6 5 7 6 6 6 5 5 6 5 4 3 7 3 1 -1 13 14 15 17 23 15 3 2 3 2 1 3 4 3 4 1
Height
5739 5741 5740 5741 5742 5742 5743 5742 5742 5742 5742 5744 5747 5751 5754 5757 5762 5766 5769 5774 5779 5785 5789 5793 5795 5799 5801 5804 5806 5807 5807 5809 5810 5813 5815 5817 5819 5820 5823 5823 5825 5827 5829 5831 5830 5832 5834
5736 5737 5738 5739 5739 5740 5741 5741 5740 5741 5743 5745 5748 5751 5755 5759 5763 5767 5772 5777 5782 5788 5792 5795 5799 5802 5804 5807 5809 5810 5812 5812 5814 5816 5818 5821 5822 5824 5824 5825 5827 5829 5831 5830 5831 5831 5833
5732 5734 5736 5737 5738 5739 5739 5740 5741 5742 5744 5747 5750 5754 5757 5760 5765 5771 5776 5781 5786 5791 5795 5799 5803 5805 5808 5810 5811 5813 5815 5816 5817 5819 5821 5823 5824 5826 5827 5828 5828 5830 5832 5830 5831 5832 5832
5729 5731 5734 5735 5736 5738 5739 5739 5740 5743 5745 5748 5752 5755 5760 5765 5770 5775 5780 5786 5790 5794 5799 5803 5805 5807 5810 5812 5814 5815 5817 5818 5820 5821 5823 5825 5826 5827 5828 5829 5828 5829 5831 5829 5829 5829 5829
5726 5729 5732 5733 5735 5737 5738 5739 5741 5742 5746 5750 5754 5759 5765 5769 5774 5780 5784 5788 5793 5797 5801 5804 5806 5809 5812 5814 5816 5817 5818 5820 5821 5823 5824 5825 5827 5827 5828 5828 5829 5829 5830 5829 5829 5829 5829
5724 5728 5729 5731 5734 5736 5738 5739 5741 5745 5748 5753 5758 5764 5769 5773 5778 5783 5787 5791 5795 5799 5802 5806 5809 5813 5814 5816 5817 5818 5819 5820 5821 5823 5824 5826 5826 5827 5827 5827 5828 5828 5828 5828 5828 5828 5828
5722 5726 5729 5731 5732 5736 5738 5740 5743 5747 5751 5757 5762 5768 5772 5776 5782 5786 5790 5794 5799 5803 5805 5808 5811 5813 5815 5816 5817 5818 5820 5821 5821 5823 5824 5825 5826 5825 5825 5825 5826 5826 5826 5826 5826 5826 5825
5720 5724 5728 5731 5732 5735 5738 5741 5745 5750 5755 5761 5766 5772 5776 5781 5786 5790 5793 5797 5801 5805 5807 5810 5812 5815 5816 5817 5819 5819 5821 5822 5822 5822 5823 5825 5824 5825 5825 5825 5825 5825 5825 5825 5825 5824 5823
5719 5723 5727 5729 5732 5735 5739 5743 5748 5753 5758 5764 5770 5775 5779 5783 5787 5791 5796 5800 5803 5806 5809 5812 5813 5815 5817 5818 5818 5819 5820 5820 5821 5821 5822 5823 5824 5823 5823 5823 5823 5822 5822 5822 5822 5820 5819
5717 5722 5724 5728 5731 5736 5741 5745 5750 5756 5762 5767 5772 5777 5781 5785 5790 5794 5798 5801 5804 5807 5811 5814 5814 5816 5817 5817 5818 5818 5818 5820 5820 5820 5820 5821 5821 5821 5821 5821 5820 5819 5819 5818 5817 5816 5815
5716 5721 5724 5727 5731 5736 5742 5747 5752 5758 5764 5769 5773 5778 5782 5787 5792 5796 5800 5803 5805 5809 5811 5813 5814 5815 5815 5817 5817 5817 5817 5817 5817 5818 5819 5819 5818 5817 5818 5818 5817 5816 5814 5814 5813 5812 5811
5713 5719 5723 5726 5730 5736 5743 5748 5754 5759 5765 5770 5775 5779 5784 5789 5793 5797 5800 5803 5806 5809 5809 5811 5812 5813 5814 5814 5814 5814 5814 5815 5815 5815 5815 5814 5814 5813 5813 5813 5812 5811 5810 5809 5808 5808 5808
5711 5717 5722 5725 5730 5736 5743 5748 5754 5760 5765 5770 5775 5780 5785 5789 5793 5797 5800 5803 5805 5806 5808 5810 5810 5810 5810 5810 5809 5810 5810 5811 5811 5811 5810 5810 5809 5808 5808 5807 5806 5805 5805 5805 5805 5803 5803
5708 5714 5719 5724 5729 5735 5741 5748 5754 5759 5765 5770 5775 5780 5784 5788 5792 5795 5798 5801 5803 5804 5804 5806 5806 5806 5806 5806 5806 5806 5807 5807 5807 5807 5806 5805 5805 5803 5802 5802 5801 5800 5801 5800 5799 5799 5798
5706 5711 5716 5723 5728 5733 5740 5747 5753 5758 5764 5769 5774 5779 5783 5787 5790 5793 5796 5798 5799 5799 5801 5802 5802 5803 5803 5803 5804 5803 5803 5803 5803 5803 5804 5803 5802 5801 5799 5799 5798 5797 5796 5796 5794 5793 5792
5706 5710 5716 5721 5726 5732 5738 5744 5751 5757 5762 5767 5772 5777 5781 5784 5787 5790 5793 5794 5795 5796 5797 5798 5799 5800 5800 5800 5800 5800 5800 5800 5801 5801 5800 5800 5799 5798 5797 5796 5795 5793 5792 5790 5788 5786 5783
5704 5709 5714 5719 5724 5730 5736 5742 5749 5755 5760 5765 5770 5774 5778 5781 5784 5787 5789 5791 5792 5794 5795 5796 5796 5797 5797 5797 5797 5798 5798 5799 5799 5798 5798 5797 5797 5796 5793 5792 5790 5789 5786 5783 5781 5779 5775
5701 5706 5712 5716 5722 5727 5733 5739 5746 5752 5757 5763 5767 5772 5775 5777 5781 5783 5786 5788 5790 5791 5793 5793 5794 5795 5795 5796 5796 5796 5797 5797 5796 5795 5795 5794 5792 5791 5789 5787 5785 5782 5779 5777 5774 5773 5770
5697 5703 5709 5714 5720 5725 5731 5737 5743 5749 5754 5759 5764 5768 5771 5774 5777 5780 5783 5786 5788 5789 5790 5791 5792 5793 5793 5794 5795 5795 5795 5794 5793 5792 5791 5790 5790 5787 5784 5783 5780 5777 5773 5770 5767 5763 5763
5693 5700 5706 5711 5717 5723 5728 5734 5740 5745 5751 5756 5761 5764 5768 5771 5774 5777 5780 5783 5785 5786 5787 5788 5789 5790 5791 5792 5793 5793 5792 5791 5790 5790 5788 5787 5784 5782 5781 5777 5774 5771 5766 5761 5757 5753 5748
5690 5696 5703 5708 5713 5720 5725 5731 5737 5742 5747 5753 5756 5761 5764 5768 5771 5774 5777 5779 5781 5782 5784 5785 5786 5788 5789 5789 5789 5789 5788 5787 5787 5785 5783 5781 5779 5777 5774 5770 5768 5766 5759 5753 5749 5745 5741
5687 5693 5700 5705 5711 5717 5723 5728 5734 5738 5744 5749 5754 5758 5761 5765 5768 5771 5773 5775 5777 5779 5781 5782 5784 5785 5786 5787 5786 5785 5784 5783 5782 5780 5777 5774 5771 5769 5769 5761 5759 5759 5752 5747 5742 5739 5736
5682 5689 5696 5702 5707 5714 5720 5725 5730 5735 5741 5746 5750 5754 5759 5762 5765 5768 5770 5772 5773 5775 5777 5779 5780 5781 5782 5783 5782 5781 5780 5778 5777 5776 5772 5767 5762 5758 5758 5753 5751 5750 5743 5737 5734 5732 5729
5677 5684 5691 5698 5704 5711 5717 5722 5727 5732 5737 5743 5747 5751 5755 5758 5761 5764 5766 5768 5770 5772 5774 5775 5776 5777 5778 5777 5776 5775 5774 5773 5772 5769 5765 5760 5754 5749 5745 5742 5741 5743 5731 5728 5726 5727 5722
5672 5679 5687 5693 5700 5707 5712 5718 5723 5728 5733 5738 5743 5748 5751 5754 5758 5760 5762 5764 5766 5768 5770 5771 5771 5771 5771 5771 5771 5770 5769 5768 5766 5764 5759 5753 5747 5741 5735 5729 5731 5734 5726 5723 5719 5720 5713
5667 5674 5682 5688 5695 5702 5708 5713 5718 5724 5729 5734 5739 5742 5746 5750 5753 5756 5758 5760 5761 5763 5764 5765 5765 5765 5766 5765 5764 5764 5762 5761 5758 5756 5752 5746 5740 5736 5728 5722 5720 5719 5715 5713 5710 5706 5702
5661 5669 5676 5683 5689 5696 5702 5708 5713 5719 5724 5729 5734 5737 5741 5744 5746 5749 5752 5754 5756 5757 5758 5758 5758 5759 5758 5758 5757 5755 5753 5752 5749 5745 5740 5736 5730 5727 5719 5715 5716 5710 5706 5702 5697 5694 5686
5654 5662 5670 5677 5683 5689 5696 5702 5707 5713 5717 5722 5727 5731 5735 5737 5739 5742 5745 5747 5748 5749 5750 5752 5752 5751 5750 5750 5747 5745 5743 5741 5739 5735 5730 5728 5720 5717 5712 5710 5709 5703 5699 5694 5689 5683 5675
5647 5655 5663 5670 5676 5682 5689 5695 5701 5706 5711 5715 5720 5723 5727 5730 5733 5735 5737 5739 5740 5741 5743 5743 5744 5743 5741 5740 5738 5734 5732 5731 5727 5723 5721 5721 5715 5709 5705 5703 5699 5693 5689 5683 5677 5670 5663